This is the latest recevied weather packets stored in our database for station/object BMCB-21. If no packets are shown the sender has not sent any weather packets the latest 10 day(s).
| Time | Temp. | Humidity | Pressure | Rain* | Wind** | Luminosity | Snow |
|---|---|---|---|---|---|---|---|
| 1777840820 | 13.89° C | 92% | 1011.2 hPa | 0.25 mm | - | 0 W/m² | - |
| 1777828821 | 15° C | 88% | 1010.5 hPa | 0 mm | - | 3 W/m² | - |
| 1777826421 | 15° C | 87% | 1010.3 hPa | 0 mm | - | 34 W/m² | - |
| 1777825816 | 15.56° C | 85% | 1010.3 hPa | 0 mm | - | 20 W/m² | - |
| 1777819220 | 16.11° C | 86% | 1010.6 hPa | 0 mm | - | 109 W/m² | - |
| 1777817420 | 15.56° C | 89% | 1010.7 hPa | 0 mm | - | 231 W/m² | - |
| 1777816221 | 15.56° C | 89% | 1010.7 hPa | 0 mm | - | 95 W/m² | - |
| 1777813244 | 15° C | 92% | 1011.1 hPa | 0.76 mm | - | 180 W/m² | - |
| 1777812021 | 14.44° C | 93% | 1011.2 hPa | 1.52 mm | - | 153 W/m² | - |
| 1777807838 | 13.89° C | 94% | 1011.3 hPa | 2.29 mm | - | 105 W/m² | - |
| 1777805445 | 14.44° C | 94% | 1011.3 hPa | 2.79 mm | - | 71 W/m² | - |
| 1777797041 | 16.11° C | 75% | 1011 hPa | 0 mm | - | 143 W/m² | - |
| 1777795243 | 16.11° C | 75% | 1010.8 hPa | 0 mm | - | 99 W/m² | - |
| 1777794645 | 15.56° C | 75% | 1010.7 hPa | 0 mm | - | 82 W/m² | - |
| 1777791622 | 15.56° C | 80% | 1010.5 hPa | 0 mm | - | 99 W/m² | - |
| 1777791037 | 15.56° C | 82% | 1010.5 hPa | 0 mm | - | 92 W/m² | - |
| 1777767044 | 13.33° C | 92% | 1011.9 hPa | 0 mm | - | 0 W/m² | - |
| 1777765848 | 12.78° C | 91% | 1012 hPa | 0 mm | - | 0 W/m² | - |
| 1777759247 | 15° C | 85% | 1012.2 hPa | 0 mm | - | 0 W/m² | - |
| 1777746621 | 21.67° C | 61% | 1012.5 hPa | 0 mm | - | 7 W/m² | - |
| 1777743647 | 23.33° C | 55% | 1012.5 hPa | 0 mm | - | 88 W/m² | - |
| 1777734020 | 25° C | 52% | 1014.1 hPa | 0 mm | - | 360 W/m² | - |
| 1777733417 | 24.44° C | 54% | 1014.3 hPa | 0 mm | - | 371 W/m² | - |
| 1777731645 | 23.33° C | 56% | 1015 hPa | 0 mm | - | 238 W/m² | - |
| 1777726247 | 23.33° C | 56% | 1016.2 hPa | 0 mm | - | 473 W/m² | - |
* Rain latest hour (hover to see other rain measurements)
** Current wind speed in m/s (hover to see current wind gust speed)